sat.trackr.live / text

‹ back to catalog

QIANFAN-92

NORAD 66034 · 2025-233B

PAYLOAD ACTIVE UNKNOWN

§ Identity

Operator
Country
PRC
Launch date
2025-10-17
Launch site
TAISC
Launch vehicle
Mass (kg)
RCS (m²)

External: N2YO · Heavens-Above · Gunter

§ Orbital elements

Epoch: 2026-05-25T04:22:07.385952Z

Period
106.59 min
Inclination
89.0002°
Eccentricity
0.0002243
Mean motion
13.51008702 rev/d
Perigee alt
1,066.9 km
Apogee alt
1,070.2 km
Semi-major
7,446.7 km
B*
1.7900e-4
RAAN
45.4893°
Arg perigee
73.4130°
Mean anomaly
286.7267°
Rev number
3,007

§ Raw data

QIANFAN-921 66034U 25233B   26145.18202993  .00000128  00000+0  17900-3 0  99962 66034  89.0002  45.4893 0002243  73.4130 286.7267 13.51008702 30077

JSON: /api/v1/satellites/66034 · /tle

For live sub-satellite position, see the globe view (requires WebGL).

§ Visibility from observer

Set your observer location to see the next 7 days of passes ≥ 10°. The values pass through the URL so the page stays shareable.

No JS? Fill the form by hand. The geolocation button needs JavaScript.